Simultaneous Nadir Overpasses (SNOs) Predictions

Prediction of SNOs between METOP-A and NOAA-19 Satellite Orbit:

Table of predicted SNOs for the next 14.0 days since TLE Epoch: 6/7/2019
Index Date (METOP-A) Time (METOP-A) Lat,Lon (METOP-A) SZA (METOP-A ) Date (NOAA-19) Time (NOAA-19) Lat,Lon (NOAA-19) SZA (NOAA-19 ) Distance(km) Time Diff (sec)
1 06/16/2019 02:54:09 -79.72, -31.45 123.43 06/16/2019 02:53:02 -79.71, -31.52 123.45 1.58 67
2 06/16/2019 03:44:50 79.70, 135.72 56.55 06/16/2019 03:43:58 79.72, 135.73 56.56 1.44 52
3 06/16/2019 04:35:31 -79.71, -56.90 123.45 06/16/2019 04:35:02 -79.69, -56.77 123.46 3.17 29
4 06/16/2019 05:26:11 79.72, 110.56 56.58 06/16/2019 05:25:58 79.69, 110.47 56.54 3.72 13
5 06/16/2019 06:16:53 -79.70, -82.34 123.46 06/16/2019 06:17:03 -79.70, -82.32 123.46 0.46 10
6 06/16/2019 07:07:34 79.68, 84.83 56.51 06/16/2019 07:07:59 79.70, 84.92 56.54 2.85 25
7 06/16/2019 07:58:15 -79.68,-107.79 123.48 06/16/2019 07:59:04 -79.70,-107.87 123.46 2.33 49
8 06/16/2019 08:48:55 79.70, 59.66 56.54 06/16/2019 08:49:59 79.68, 59.67 56.53 2.61 64




NCC Satellite Simultaneous Nadir Overpasses (SNOs) Prediction Service
